Tupelo, MS

6:30 PM CST on December 09, 2016 (GMT -0600)
Tupelo Regional

Weather History for KTUP - July, 2012

Change the Weather History Date:

Monday, July 9, 2012

  Actual Average Record
Temperature  
Mean Temperature 82 °F 81 °F  
Max Temperature 91 °F 92 °F 100 °F (1936)
Min Temperature 73 °F 71 °F 58 °F (1972)
Degree Days  
Heating Degree Days 0 0  
Month to date heating degree days 0 0  
Since 1 June heating degree days 0 0  
Since 1 July heating degree days 0 0  
Cooling Degree Days 17 16  
Month to date cooling degree days 190 144  
Year to date cooling degree days 1063 816  
Since 1 June cooling degree days 589 539  
Growing Degree Days 32 (Base 50)    
Moisture  
Dew Point 70 °F    
Average Humidity 69    
Maximum Humidity 93    
Minimum Humidity 44    
Precipitation  
Precipitation T in 0.13 in 2.83 in (1967)
Month to date precipitation 0.24 1.24  
Year to date precipitation 22.74 30.36  
Snow  
Snow 0.00 in 0.00 in - ()
Month to date snowfall 0.0 0.0  
Since 1 June snowfall 0.0 0.0  
Since 1 July snowfall 0.0 0.0  
Snow Depth 0.00 in    
Sea Level Pressure  
Sea Level Pressure 29.97 in    
Wind  
Wind Speed 4 mph (WSW)    
Max Wind Speed 14 mph    
Max Gust Speed 21 mph    
Visibility 10 miles    
Events Thunderstorm    
T = Trace of Precipitation, MM = Missing Value Source: NWS Daily Summary

Daily Weather History Graph

Daily Weather History Graph

Search for Another Location

Airport or City:

Trip Planner

Search our weather history database for the weather conditions in past years. The results will help you decide how hot, cold, wet, or windy it might be!

Date:

Astronomy

Jul. 09, 2012 Rise Set
Actual Time 5:51 AM CDT 8:09 PM CDT
Civil Twilight 5:22 AM CDT 8:38 PM CDT
Nautical Twilight 4:46 AM CDT 9:13 PM CDT
Astronomical Twilight 4:07 AM CDT 9:52 PM CDT
Moon 11:46 PM CDT (7/9) 11:58 AM CDT (7/9)
Length of Visible Light 15h 16m
Length of Day
14h 18m
Waning Gibbous, 63% of the Moon is Illuminated
Jul 9
Waning Gibbous
Jul 10
Last Quarter
Jul 18
New
Jul 26
First Quarter
Aug 1
Full

Hourly Weather History & Observations

Time (CDT) Temp. Heat Index Dew Point Humidity Pressure Visibility Wind Dir Wind Speed Gust Speed Precip Events Conditions
12:53 AM 75.0 °F - 70.0 °F 84% 30.00 in - West 3.5 mph - N/A   Partly Cloudy
1:53 AM 73.9 °F - 70.0 °F 87% 29.99 in - West 4.6 mph - N/A   Mostly Cloudy
2:53 AM 73.9 °F - 70.0 °F 87% 29.98 in - WSW 4.6 mph - N/A   Overcast
3:26 AM 73.4 °F - 71.6 °F 94% 30.00 in - Calm Calm - N/A   Overcast
3:53 AM 73.9 °F - 70.0 °F 87% 29.98 in - SW 4.6 mph - N/A   Overcast
4:53 AM 73.0 °F - 70.0 °F 90% 29.97 in - SW 3.5 mph - N/A   Clear
5:39 AM 73.4 °F - 71.6 °F 94% 29.99 in 10.0 mi SW 3.5 mph - N/A   Scattered Clouds
5:50 AM 73.4 °F - 71.6 °F 94% 29.99 in 10.0 mi WSW 3.5 mph - N/A   Mostly Cloudy
5:53 AM 73.0 °F - 71.1 °F 93% 29.98 in 10.0 mi WSW 4.6 mph - N/A   Mostly Cloudy
6:53 AM 73.9 °F - 71.1 °F 91% 29.99 in 10.0 mi WSW 5.8 mph - N/A   Overcast
7:28 AM 75.2 °F - 71.6 °F 89% 30.00 in 10.0 mi West 4.6 mph - N/A   Scattered Clouds
7:53 AM 75.0 °F - 71.1 °F 87% 29.99 in 10.0 mi West 4.6 mph - N/A   Scattered Clouds
8:13 AM 75.2 °F - 71.6 °F 89% 30.01 in 10.0 mi West 8.1 mph - N/A   Mostly Cloudy
8:53 AM 75.9 °F - 71.1 °F 85% 30.01 in 10.0 mi West 5.8 mph - N/A   Overcast
9:53 AM 77.0 °F - 71.1 °F 82% 30.01 in 10.0 mi WNW 3.5 mph - N/A   Overcast
10:16 AM 78.8 °F - 71.6 °F 78% 30.02 in 10.0 mi Variable 3.5 mph - N/A   Overcast
10:53 AM 80.1 °F 83.6 °F 71.1 °F 74% 30.01 in 10.0 mi West 3.5 mph - N/A   Overcast
11:41 AM 82.4 °F 87.2 °F 71.6 °F 70% 30.02 in 10.0 mi Variable 4.6 mph - N/A   Mostly Cloudy
11:53 AM 84.0 °F 89.0 °F 71.1 °F 65% 30.01 in 10.0 mi Variable 5.8 mph - N/A   Overcast
12:43 PM 87.8 °F 93.8 °F 71.6 °F 58% 29.99 in 10.0 mi Variable 3.5 mph - N/A   Mostly Cloudy
12:53 PM 84.9 °F 89.4 °F 70.0 °F 61% 29.98 in 10.0 mi North 5.8 mph - N/A   Mostly Cloudy
1:18 PM 84.2 °F 88.4 °F 69.8 °F 62% 29.98 in 10.0 mi Calm Calm - N/A   Mostly Cloudy
1:53 PM 87.1 °F 92.0 °F 70.0 °F 57% 29.96 in 10.0 mi Variable 4.6 mph - N/A   Mostly Cloudy
2:53 PM 87.1 °F 95.4 °F 73.9 °F 65% 29.94 in 10.0 mi SSW 4.6 mph - 0.00 in   Mostly Cloudy
3:53 PM 91.0 °F 93.8 °F 66.0 °F 44% 29.92 in 10.0 mi Variable 4.6 mph - N/A   Clear
4:53 PM 86.0 °F 90.7 °F 70.0 °F 59% 29.91 in 10.0 mi NNW 6.9 mph - N/A   Clear
5:53 PM 88.0 °F 92.9 °F 70.0 °F 55% 29.90 in 10.0 mi West 3.5 mph - N/A   Clear
6:53 PM 86.0 °F 90.7 °F 70.0 °F 59% 29.91 in 10.0 mi NNW 4.6 mph - N/A   Clear
7:53 PM 82.9 °F 87.0 °F 70.0 °F 65% 29.93 in 10.0 mi NNW 4.6 mph - N/A   Clear
8:48 PM 78.8 °F - 66.2 °F 65% 29.96 in 10.0 mi SSW 6.9 mph - N/A Thunderstorm Thunderstorm
8:53 PM 77.0 °F - 68.0 °F 74% 29.95 in 10.0 mi SSW 3.5 mph - N/A Thunderstorm Thunderstorm
9:22 PM 75.2 °F - 69.8 °F 83% 29.96 in 10.0 mi Calm Calm - N/A   Scattered Clouds
9:53 PM 75.9 °F - 70.0 °F 82% 29.96 in 10.0 mi Calm Calm - N/A   Clear
10:53 PM 73.9 °F - 71.1 °F 91% 29.96 in 10.0 mi South 3.5 mph - N/A   Clear
11:53 PM 73.9 °F - 70.0 °F 87% 29.96 in 10.0 mi Calm Calm - N/A   Clear